Mitchell, SD

7:14 PM CST on November 20, 2017 (GMT -0600)
Mitchell Municipal

Weather History for KMHE - August, 2014

Change the Weather History Date:

Sunday, August 10, 2014

  Actual Average Record
Temperature  
Mean Temperature 68 °F 73 °F  
Max Temperature 78 °F 84 °F 105 °F (1947)
Min Temperature 58 °F 62 °F 42 °F (1903)
Degree Days  
Heating Degree Days 0 0  
Month to date heating degree days 0 0  
Since 1 June heating degree days 35 40  
Since 1 July heating degree days 9 5  
Cooling Degree Days 3 8  
Month to date cooling degree days 55 87  
Year to date cooling degree days 507 605  
Since 1 June cooling degree days 429 565  
Growing Degree Days 21 (Base 50)    
Moisture  
Dew Point 65 °F    
Average Humidity 84    
Maximum Humidity 100    
Minimum Humidity 67    
Precipitation  
Precipitation 0.00 in 0.09 in 2.18 in (2013)
Month to date precipitation 1.64 0.76  
Year to date precipitation 11.92 14.73  
Snow  
Snow 0.00 in - 0.00 in ()
Month to date snowfall 0.0  
Since 1 June snowfall 0.0  
Since 1 July snowfall 0.0  
Snow Depth 0.00 in    
Sea Level Pressure  
Sea Level Pressure 30.06 in    
Wind  
Wind Speed 7 mph (NNW)    
Max Wind Speed 16 mph    
Max Gust Speed 20 mph    
Visibility 5 miles    
Events      
T = Trace of Precipitation, MM = Missing Value Source: NWS Daily Summary

Daily Weather History Graph

Daily Weather History Graph

Search for Another Location

Airport or City:

Trip Planner

Search our weather history database for the weather conditions in past years. The results will help you decide how hot, cold, wet, or windy it might be!

Date:

Astronomy

Aug. 10, 2014 Rise Set
Actual Time 6:30 AM CDT 8:43 PM CDT
Civil Twilight 5:59 AM CDT 9:14 PM CDT
Nautical Twilight 5:19 AM CDT 9:53 PM CDT
Astronomical Twilight 4:36 AM CDT 10:37 PM CDT
Moon 8:28 PM CDT (8/10) 6:26 AM CDT (8/10)
Length of Visible Light 15h 15m
Length of Day
14h 12m
Full, 100% of the Moon is Illuminated
Aug 10
Full
Aug 10
Full
Aug 17
Last Quarter
Aug 25
New
Sep 2
First Quarter

Hourly Weather History & Observations

Time (CDT) Temp. Dew Point Humidity Pressure Visibility Wind Dir Wind Speed Gust Speed Precip Events Conditions
12:53 AM 70.0 °F 66.9 °F 90% 29.99 in 10.0 mi South 6.9 mph - N/A   Clear
1:53 AM 70.0 °F 66.9 °F 90% 30.01 in 10.0 mi SSW 4.6 mph - N/A   Mostly Cloudy
2:53 AM 70.0 °F 66.9 °F 90% 30.01 in 10.0 mi SSW 3.5 mph - N/A   Mostly Cloudy
4:05 AM 68.0 °F 66.0 °F 93% 30.02 in 7.0 mi SW 6.9 mph - N/A   Scattered Clouds
4:53 AM 64.9 °F 64.0 °F 97% 30.00 in 5.0 mi Calm Calm - N/A   Clear
5:23 AM 64.9 °F 64.0 °F 97% 30.02 in 2.0 mi Calm Calm - N/A   Clear
5:34 AM 64.9 °F 64.0 °F 97% 30.03 in 4.0 mi Calm Calm - N/A   Clear
5:46 AM 64.9 °F 64.0 °F 97% 30.03 in 2.0 mi Calm Calm - N/A   Clear
5:53 AM 64.9 °F 64.0 °F 97% 30.02 in 2.5 mi Calm Calm - N/A   Partly Cloudy
6:04 AM 66.0 °F 66.0 °F 100% 30.04 in 3.0 mi Calm Calm - N/A   Scattered Clouds
6:28 AM 64.9 °F 64.0 °F 97% 30.04 in 2.5 mi Calm Calm - N/A   Partly Cloudy
6:39 AM 64.0 °F 63.0 °F 96% 30.05 in 3.0 mi Calm Calm - N/A   Mostly Cloudy
6:50 AM 64.4 °F 64.4 °F 100% 30.05 in 2.5 mi WNW 3.5 mph - N/A   Scattered Clouds
7:12 AM 64.9 °F 64.0 °F 97% 30.05 in 3.0 mi Calm Calm - N/A   Scattered Clouds
7:53 AM 66.9 °F 66.0 °F 97% 30.04 in 5.0 mi NW 4.6 mph - N/A   Mostly Cloudy
8:07 AM 66.9 °F 66.0 °F 97% 30.06 in 5.0 mi NW 3.5 mph - N/A   Mostly Cloudy
8:29 AM 66.9 °F 66.0 °F 97% 30.06 in 4.0 mi Calm Calm - N/A   Mostly Cloudy
8:50 AM 69.8 °F 68.0 °F 94% 30.06 in 7.0 mi NNW 6.9 mph - N/A   Scattered Clouds
9:10 AM 71.1 °F 66.9 °F 87% 30.06 in - NNW 12.7 mph - N/A   Mostly Cloudy
9:53 AM 70.0 °F 66.9 °F 90% 30.06 in - NNW 9.2 mph - N/A   Overcast
10:35 AM 72.0 °F 66.9 °F 84% 30.08 in - NNW 12.7 mph - N/A   Mostly Cloudy
10:45 AM 73.0 °F 66.9 °F 81% 30.08 in - NNW 11.5 mph - N/A   Scattered Clouds
10:53 AM 73.0 °F 66.0 °F 79% 30.07 in - NNW 12.7 mph - N/A   Scattered Clouds
11:53 AM 75.0 °F 66.0 °F 73% 30.07 in - North 15.0 mph - N/A   Partly Cloudy
12:53 PM 75.9 °F 66.9 °F 74% 30.08 in - North 12.7 mph 18.4 mph N/A   Scattered Clouds
1:18 PM 75.9 °F 66.9 °F 74% 30.10 in - North 12.7 mph - N/A   Mostly Cloudy
1:53 PM 77.0 °F 66.9 °F 71% 30.08 in - North 11.5 mph 18.4 mph N/A   Mostly Cloudy
2:25 PM 77.0 °F 66.9 °F 71% 30.10 in - North 11.5 mph - N/A   Scattered Clouds
2:40 PM 77.0 °F 66.9 °F 71% 30.11 in - North 10.4 mph - N/A   Mostly Cloudy
2:53 PM 75.9 °F 66.0 °F 71% 30.09 in - North 9.2 mph - N/A   Scattered Clouds
3:06 PM 75.0 °F 66.0 °F 73% 30.10 in - NNW 11.5 mph - N/A   Mostly Cloudy
3:39 PM 75.9 °F 66.0 °F 71% 30.10 in - NNW 12.7 mph - N/A   Overcast
3:53 PM 77.0 °F 66.0 °F 69% 30.08 in - North 11.5 mph - N/A   Mostly Cloudy
4:53 PM 75.9 °F 66.9 °F 74% 30.08 in - North 5.8 mph - N/A   Scattered Clouds
5:53 PM 78.1 °F 66.0 °F 66% 30.07 in - NNW 9.2 mph - N/A   Clear
7:53 PM 75.9 °F 66.0 °F 71% 30.07 in - NNW 10.4 mph - N/A   Mostly Cloudy
8:53 PM 71.1 °F 64.0 °F 78% 30.09 in - North 8.1 mph - N/A   Partly Cloudy
9:53 PM 66.9 °F 62.1 °F 84% 30.11 in - NNW 6.9 mph - N/A   Clear
10:53 PM 64.9 °F 60.1 °F 84% 30.12 in - North 8.1 mph - N/A   Clear
11:53 PM 62.1 °F 57.9 °F 86% 30.13 in - North 6.9 mph - N/A   Clear